Showing default

COSMOS 2579, 61730

Orbit data source: Space-Track

COSMOS 2579, 61730 is a payload satellite owned by VVKO VKS (CIS) in SSO that was launched on Thu, 31 Oct 2024 UTC via a SOYUZ-2-1A launch vehicle from the Plesetsk Missile And Space Complex (PKMTR). Payloads include a variety of satellites, spacecraft, and rockets equipped with specific instruments for various scientific and technological missions. These include communications satellites like Starlink; space stations such as the ISS; scientific satellites like the Hubble; Earth observation satellites from companies like Planet Labs, Umbra, and HawkEye 360; GPS; miniature CubeSats for education and research; and military/defense satellites.

Loading next visibility...
COSMOS 2579 details
Identifier
61730, 2024-197A
Orbit
SSO
Last TLE update10 hours ago
Origin
Flag of CISVVKO VKS (CIS)
ManufacturerArsenal
MissionOperational spacecraft
Bus & MotorBARS, AOCS
Mass3,700 kg wet, ~3,500 kg dry
Launch date (UTC)
2024-10-31 (1 month ago)
Launch vehicle
SOYUZ-2-1A
Launch site
Plesetsk Missile And Space Complex (PKMTR)
Object type
Payload
Rocket body
Debris
Shape & HBRUnknown
Radar Cross SectionLarge (>1 m²)

Expand to show TLE details & history

TLE from 10 hours ago
0 COSMOS 2579
1 61730U 24197A   24348.48206993  .00005790  00000-0  25702-3 0  9992
2 61730  97.5612 257.0366 0010067 112.3420 247.8884 15.21914618  6583
Epoch: 2024-12-13T11:34Z
Definitive object data (Epoch: 2024-12-13T11:34:10.841Z)
Latitude-0.00002°
Longitude0.84401°
Altitude505.767 km
Speed7.61 km/s
True Right ascension17h 08m 08s
True Declination0° 00' 00"
Sunlit
Object was in daylight at TLE epoch
Visualization TLE readout
Latitude16.7395°
Longitude-176.45421°
Altitude498.25 km
Speed7.619 km/s
Apparent Right ascension06h 34m 08s
Apparent Declination-11° 09' 54"
Sunlit
Object is in full shadow
Visualization observer readout
Local Sidereal Time20:16:50
Azimuth45.422° ENE
Elevation-53.362°
Doppler factor1
Orbital elements
Apogee altitude503.957 km
Perigee altitude490.115 km
Semi-major axis6,875.173 km
Eccentricity0.0010067
Inclination97.5612°
RAAN257.0366°
Arg. of periapsis112.342°
True anomaly247.78158°
Mean anomaly247.8884°
Eccentric anomaly247.83498°
Mean motion3.80731 °/min
BSTAR0.00025702
Orbital period94.56 mins
Loading maneuver chart data...
Loading historical data...
Loading historical data...
Loading historical data...
Loading historical data...
Loading historical data...
Loading historical data...
Loading historical data...
Other satellites on launch #197 in the year 2024 (2024-10-31 UTC)

COSMOS 2579 Visibility forecast

Observer location: undefined°, undefined

Span
Click to sort rows by Start time (UTC) header in descending order
Start Az.
Max El. time (UTC)
Max El. Az.
Max El.
End time (UTC)
End Az.
6 mins2024-12-14 07:04:03.358Z9.451° NNE2024-12-14 07:07:03.358Z246.1° WSW44.464°2024-12-14 07:10:03.358Z196.695° SSW
5 mins2024-12-14 17:42:03.358Z126.992° SE2024-12-14 17:44:03.358Z70.57° E30.417°2024-12-14 17:47:03.358Z7.451° NNE
|